Location: Prague
(50.0830°N, 14.4670°E)
Time: 08:58:20
(UTC+02:00)

STARLINK-1652 - Pass Details

Date: 22 September 2020
Orbit: 548 x 550 km, 53.0° (Epoch: 24 October)

Event Time Altitude Azimuth Distance (km) Brightness Sun altitude
Exits shadow 03:56:58 46° 50° (NE) 723 4.5 -26.6°
Drops below altitude 10° 03:59:53 11° 70° (ENE) 1,750 7.1 -26.2°
Sets 04:02:11 0° 73° (ENE) 2,668 8.3 -25.9°
